This is the latest recevied weather packets stored in our database for station/object N5ZP. If no packets are shown the sender has not sent any weather packets the latest 10 day(s).
| Time | Temp. | Humidity | Pressure | Rain* | Wind** | Luminosity | Snow |
|---|---|---|---|---|---|---|---|
| 1777225534 | 25.56° C | 82% | 1005.1 hPa | 0 mm | - | 763 W/m² | - |
| 1777225232 | 25° C | 83% | 1005.1 hPa | 0 mm | - | 338 W/m² | - |
| 1777224928 | 25° C | 84% | 1005.1 hPa | 0 mm | - | 149 W/m² | - |
| 1777224626 | 25° C | 83% | 1005.2 hPa | 0 mm | - | 120 W/m² | - |
| 1777224325 | 25° C | 85% | 1005.5 hPa | 0 mm | - | 256 W/m² | - |
| 1777224022 | 25° C | 83% | 1005.4 hPa | 0 mm | - | 148 W/m² | - |
| 1777223720 | 25° C | 83% | 1005.5 hPa | 0 mm | - | 198 W/m² | - |
| 1777223415 | 25° C | 84% | 1005.3 hPa | 0 mm | - | 360 W/m² | - |
| 1777223113 | 24.44° C | 85% | 1005.4 hPa | 0 mm | - | 323 W/m² | - |
| 1777222809 | 24.44° C | 85% | 1005.4 hPa | 0 mm | - | 249 W/m² | - |
| 1777222508 | 25° C | 84% | 1005.3 hPa | 0 mm | - | 171 W/m² | - |
| 1777222205 | 24.44° C | 86% | 1005.3 hPa | 0 mm | - | 371 W/m² | - |
| 1777221903 | 24.44° C | 87% | 1005.6 hPa | 0 mm | - | 98 W/m² | - |
| 1777221603 | 24.44° C | 87% | 1005.6 hPa | 0 mm | - | 174 W/m² | - |
| 1777221300 | 24.44° C | 86% | 1005.3 hPa | 0 mm | - | 216 W/m² | - |
| 1777220996 | 24.44° C | 85% | 1005.3 hPa | 0 mm | - | 379 W/m² | - |
| 1777220692 | 24.44° C | 87% | 1005.6 hPa | 0 mm | - | 349 W/m² | - |
| 1777220389 | 23.89° C | 88% | 1005.8 hPa | 0 mm | - | 334 W/m² | - |
| 1777220088 | 23.89° C | 89% | 1005.5 hPa | 0 mm | - | 205 W/m² | - |
| 1777219785 | 23.89° C | 89% | 1005.8 hPa | 0 mm | - | 149 W/m² | - |
| 1777219483 | 23.33° C | 90% | 1005.8 hPa | 0 mm | - | 211 W/m² | - |
| 1777219179 | 23.33° C | 90% | 1005.4 hPa | 0 mm | - | 183 W/m² | - |
| 1777218875 | 23.33° C | 91% | 1005.7 hPa | 0 mm | - | 148 W/m² | - |
| 1777218571 | 22.78° C | 91% | 1005.8 hPa | 0 mm | - | 174 W/m² | - |
| 1777218271 | 22.78° C | 91% | 1005.7 hPa | 0 mm | - | 37 W/m² | - |
* Rain latest hour (hover to see other rain measurements)
** Current wind speed in m/s (hover to see current wind gust speed)